EW1970 Weather Reports


time (UTC)temp
C
wind
direction
speed
KPH
gust
KPH
rain 1hr
cm
rain 24hr
cm
rain mn
cm
humidity
%
barometer
mb
20260831084507 25 38 0.0 4.8 0.00 0.00 0.00 84 1016.4
20260831083022 26 220 0.0 4.8 0.00 0.00 0.00 83 1016.4
20260831081519 26 94 0.0 6.4 0.00 0.00 0.00 82 1016.5
20260831080047 26 19 0.0 6.4 0.00 0.00 0.00 81 1016.4
20260831074507 26 82 0.0 4.8 0.00 0.00 0.00 79 1016.4
20260831073025 26 145 0.0 3.2 0.00 0.00 0.00 79 1016.6
20260831071516 26 162 1.6 6.4 0.00 0.00 0.00 78 1016.6
20260831070029 26 273 1.6 9.7 0.00 0.00 0.00 76 1016.6
20260831064531 27 131 0.0 3.2 0.00 0.00 0.00 75 1016.7
20260831063012 27 182 0.0 4.8 0.00 0.00 0.00 74 1016.7
20260831061513 27 238 0.0 6.4 0.00 0.00 0.00 73 1016.7
20260831060022 27 167 0.0 9.7 0.00 0.00 0.00 72 1016.5
20260831054529 28 5 0.0 11.3 0.00 0.00 0.00 70 1016.3
20260831053031 28 105 1.6 8.0 0.00 0.00 0.00 68 1016.2
20260831051513 28 119 0.0 4.8 0.00 0.00 0.00 67 1016.2
20260831050021 28 70 0.0 8.0 0.00 0.00 0.00 65 1016.1
20260831044527 28 352 0.0 6.4 0.00 0.00 0.00 64 1016.0
20260831043033 29 166 1.6 9.7 0.00 0.00 0.00 63 1016.0
20260831041546 29 211 1.6 12.9 0.00 0.00 0.00 63 1016.1
20260831040015 30 204 1.6 12.9 0.00 0.00 0.00 62 1016.0
20260831034529 30 5 1.6 12.9 0.00 0.00 0.00 62 1015.8
20260831033029 30 130 1.6 12.9 0.00 0.00 0.00 61 1015.7
20260831031540 30 204 1.6 11.3 0.00 0.00 0.00 60 1015.5
20260831030032 30 125 1.6 11.3 0.00 0.00 0.00 61 1015.2
20260831024520 30 79 1.6 6.4 0.00 0.00 0.00 60 1015.0
20260831023004 30 198 1.6 11.3 0.00 0.00 0.00 59 1014.9
20260831021508 31 116 1.6 16.1 0.00 0.00 0.00 56 1014.6
20260831020013 30 128 3.2 14.5 0.00 0.00 0.00 55 1014.3
20260831014516 30 132 0.0 3.2 0.00 0.00 0.00 52 1014.1
20260831013024 30 93 0.0 3.2 0.00 0.00 0.00 51 1013.9
20260831011505 31 185 0.0 3.2 0.00 0.00 0.00 50 1013.7
20260831010010 31 121 0.0 3.2 0.00 0.00 0.00 50 1013.9
20260831004516 32 121 0.0 4.8 0.00 0.00 0.00 49 1013.8
20260831003021 32 142 0.0 6.4 0.00 0.00 0.00 47 1013.7
20260831001528 32 107 0.0 3.2 0.00 0.00 0.00 47 1013.6
20260831000019 32 167 1.6 8.0 0.00 0.00 0.00 46 1013.6
20260830234543 32 129 0.0 4.8 0.00 0.00 0.00 49 1013.7
20260830233021 33 144 0.0 6.4 0.00 0.00 0.00 46 1013.7
20260830231522 34 40 0.0 3.2 0.00 0.00 0.00 44 1013.7
20260830230032 33 117 0.0 4.8 0.00 0.00 0.00 45 1013.7
20260830224511 33 150 0.0 6.4 0.00 0.00 0.00 44 1013.8
20260830223018 35 60 0.0 8.0 0.00 0.00 0.00 40 1013.8
20260830221528 35 30 0.0 6.4 0.00 0.00 0.00 40 1013.8
20260830220030 36 143 1.6 6.4 0.00 0.00 0.00 40 1013.9
20260830214532 36 28 0.0 6.4 0.00 0.00 0.00 40 1014.1
20260830213021 37 130 1.6 9.7 0.00 0.00 0.00 39 1014.2
20260830211520 37 190 1.6 4.8 0.00 0.00 0.00 39 1014.7
20260830210028 37 242 1.6 14.5 0.00 0.00 0.00 38 1015.0
20260830204540 36 289 3.2 8.0 0.00 0.00 0.00 42 1015.2
20260830203049 37 162 1.6 9.7 0.00 0.00 0.00 40 1015.3
20260830201517 37 287 1.6 9.7 0.00 0.00 0.00 40 1015.5
20260830200039 37 198 0.0 9.7 0.00 0.00 0.00 42 1015.7
20260830195441 37 229 1.6 8.0 0.00 0.00 0.00 42 1015.9
20260830195435 37 64 0.0 12.9 0.00 0.00 0.00 41 1016.1
20260830191513 36 264 3.2 9.7 0.00 0.00 0.00 43 1016.4
20260830190003 36 246 1.6 6.4 0.00 0.00 0.00 46 1016.6
20260830184515 36 126 1.6 12.9 0.00 0.00 0.00 46 1016.7
20260830183006 35 293 3.2 12.9 0.00 0.00 0.00 45 1016.9
20260830181510 35 264 0.0 11.3 0.00 0.00 0.00 48 1017.1
20260830180019 35 72 3.2 9.7 0.00 0.00 0.00 50 1017.6
20260830174503 32 157 1.6 12.9 0.00 0.00 0.00 56 1017.9
20260830173005 34 190 1.6 9.7 0.00 0.00 0.00 52 1018.0
20260830171511 33 178 3.2 9.7 0.00 0.00 0.00 54 1018.3
20260830170014 33 139 1.6 6.4 0.00 0.00 0.00 56 1018.3
20260830164542 32 55 3.2 11.3 0.00 0.00 0.00 58 1018.5
20260830163006 31 86 1.6 8.0 0.00 0.00 0.00 61 1018.5
20260830161506 30 228 0.0 6.4 0.00 0.00 0.00 64 1018.6
20260830160012 30 121 1.6 8.0 0.00 0.00 0.00 65 1018.6
20260830154524 29 117 1.6 12.9 0.00 0.00 0.00 69 1018.4
20260830153025 28 255 1.6 9.7 0.00 0.00 0.00 71 1018.3
20260830151506 28 225 1.6 14.5 0.00 0.00 0.00 72 1018.2
20260830150017 27 277 0.0 12.9 0.00 0.00 0.00 76 1018.3
20260830144518 27 206 1.6 16.1 0.00 0.00 0.00 78 1018.3
20260830143024 26 304 3.2 11.3 0.00 0.00 0.00 80 1018.4
20260830141527 26 240 3.2 14.5 0.00 0.00 0.00 81 1018.4
20260830140014 26 271 1.6 11.3 0.00 0.00 0.00 83 1018.1
20260830134522 25 217 3.2 12.9 0.00 0.00 0.00 85 1018.0
20260830133023 25 97 1.6 6.4 0.00 0.00 0.00 87 1017.9
20260830131536 24 290 0.0 4.8 0.00 0.00 0.00 88 1017.8
20260830130028 23 243 0.0 3.2 0.00 0.00 0.00 89 1017.7
20260830124513 23 257 0.0 3.2 0.00 0.00 0.00 89 1017.6
20260830123019 23 219 0.0 3.2 0.00 0.00 0.00 89 1017.5
20260830121526 23 259 0.0 3.2 0.00 0.00 0.00 88 1017.5
20260830120031 23 232 0.0 3.2 0.00 0.00 0.00 88 1017.3
20260830114534 23 107 0.0 3.2 0.00 0.00 0.00 87 1017.1
20260830113015 23 215 0.0 3.2 0.00 0.00 0.00 86 1017.2
20260830111523 23 264 0.0 3.2 0.00 0.00 0.00 86 1017.0
20260830110031 23 238 0.0 3.2 0.00 0.00 0.00 85 1016.9
20260830104510 23 269 0.0 3.2 0.00 0.00 0.00 84 1016.8
20260830103021 23 223 0.0 1.6 0.00 0.00 0.00 83 1016.8
20260830101524 24 248 0.0 3.2 0.00 0.00 0.00 81 1016.8
20260830100005 25 242 0.0 4.8 0.00 0.00 0.00 1016.8
20260830094508 25 252 0.0 3.2 0.00 0.00 0.00 78 1016.7
20260830093014 25 248 1.6 4.8 0.00 0.00 0.00 78 1016.6
20260830091519 25 21 0.0 6.4 0.00 0.00 0.00 77 1016.6
20260830090026 25 167 0.0 3.2 0.00 0.00 0.00 77 1016.7